Flag for U.S.A. Weather past 2 weeks in Cleveland, Ohio, U.S.A.

Now
78 °F

More clouds than sun.


Feels Like: 80 °F
Forecast: 68 / 77 °F
Wind: 14 mph from West

Location: Cleveland-Hopkins International Airport

Current Time: Sep 2, 2014 at 3:09:08 PM

Latest Report: Sep 2, 2014 at 2:51 PM


Visibility: 10 mi

Pressure: 29.88 "Hg

Humidity: 62%

Dew point: 64 °F

Location of ClevelandLocation

Historic Weather in Cleveland — Graph

°F

Cleveland temperature yesterday

Maximum temperature yesterday: 83 °F (at 3:51 PM)
Minimum temperature yesterday: 70 °F (at 4:51 AM)
Average temperature yesterday: 76 °F

Past Weeks' High & Low Weather Summary

 TemperatureHumidityPressure
High88 °F (Aug 30, 3:51 PM)97% (Aug 19, 9:51 PM)30.18 "Hg (Aug 19, 9:51 PM)
Low52 °F (Aug 29, 2:51 AM)41% (Aug 29, 5:51 PM)29.79 "Hg (Aug 19, 4:51 PM)
Average73 °F75%30.01 "Hg
* Reported Aug 18 12:51 PM — Sep 2 12:51 PM, Cleveland, Weather by CustomWeather, © 2014

Note: Actual official high and low records may vary slightly from our data, if they occured in-between our weather recording intervals... More about our weather records

Advertising

Cleveland weather history for previous 24 hours

 ConditionsComfort  
Time TempWeatherWind HumidityBarometerVisibility
12:51 PM
Sep 2
73 °FMostly cloudy.7 mph81%29.90 "Hg10 mi
11:51 AM74 °FMore clouds than sun.7 mph76%29.90 "Hg10 mi
10:51 AM75 °FMore clouds than sun.7 mph79%29.89 "Hg10 mi
9:51 AM73 °FLight rain. Mostly cloudy.7 mph84%29.91 "Hg10 mi
8:51 AM73 °FCloudy.10 mph84%29.94 "Hg10 mi
7:51 AM72 °FPartly cloudy.12 mph87%29.93 "Hg10 mi
6:51 AM70 °FPartly cloudy.6 mph90%29.92 "Hg10 mi
5:51 AM71 °FPartly cloudy.8 mph90%29.91 "Hg10 mi
4:51 AM72 °FPassing clouds.9 mph87%29.90 "Hg10 mi
3:51 AM74 °FPartly cloudy.10 mph85%29.90 "Hg10 mi
2:51 AM74 °FPartly cloudy.8 mph85%29.89 "Hg10 mi
1:51 AM75 °FPartly cloudy.10 mph82%29.90 "Hg10 mi
12:51 AM75 °FPartly cloudy.10 mph82%29.90 "Hg10 mi
11:51 PM
Sep 1
76 °FPartly cloudy.10 mph80%29.89 "Hg10 mi
10:51 PM77 °FPartly cloudy.7 mph77%29.89 "Hg10 mi
9:51 PM78 °FPartly cloudy.9 mph74%29.88 "Hg10 mi
8:51 PM79 °FPartly sunny.9 mph74%29.85 "Hg10 mi
7:51 PM80 °FPartly sunny.14 mph71%29.84 "Hg10 mi
6:51 PM81 °FBroken clouds.14 mph67%29.83 "Hg10 mi
5:51 PM83 °FBroken clouds.15 mph63%29.85 "Hg10 mi
4:51 PM83 °FBroken clouds.15 mph63%29.85 "Hg10 mi
3:51 PM83 °FPassing clouds.16 mph63%29.86 "Hg10 mi
Weather by CustomWeather, © 2014

See weather overviewHow to use our weather pages